Location: Hollin Hills
(38.7573°N, 77.0661°W)
Time: 19:10:21
(UTC+00:00)

BlueWalker 3 - Pass Details

Date: 13 April 2026
Orbit: 447 x 458 km, 53.2° (Epoch: 12 May)

Event Time Altitude Azimuth Distance (km) Brightness Sun altitude
Rises 00:25:25 0° 304° (NW) 2,473 7.2 -8.9°
Reaches altitude 10° 00:27:38 10° 297° (WNW) 1,597 6.1 -9.3°
Maximum altitude 00:31:01 38° 227° (SW) 706 2.9 -9.9°
Drops below altitude 10° 00:34:22 10° 158° (SSE) 1,590 4.1 -10.5°
Enters shadow 00:34:51 - 156° (SSE) 1,781 4.3 -10.6°
